Regional Weather Roundup
Issued by NWS Newport/Morehead, NC

Current Version | Previous Version | Text Only | Print | Product List | Glossary On
Versions: 1 2 3 4 5 6 7 8 9 10 11 12 13 14 15 16 17 18 19 20 21 22 23 24 25 26 27 28 29 30 31 32 33 34 35 36 37 38 39 40 41 42 43 44 45 46 47 48 49 50
000
ASUS42 KMHX 011310
RWRMHX
WEATHER ROUNDUP FOR EASTERN NORTH CAROLINA
NATIONAL WEATHER SERVICE NEWPORT/MOREHEAD CITY NC
900 AM EDT WED OCT 01 2014

NOTE: "FAIR" INDICATES FEW OR NO CLOUDS BELOW 12,000 FEET
WITH NO SIGNIFICANT WEATHER AND/OR OBSTRUCTIONS TO VISIBILITY

NCZ015>017-031-032-045>047-102-103-011400-
NORTH COAST

CITY           SKY/WX    TMP DP  RH WIND       PRES   REMARKS
EDENTON        SUNNY     63  63  98 N5        29.97S
ELIZABETH CITY SUNNY     68  65  90 N8        29.96S
KITTY HAWK     MOSUNNY   71  64  78 N7        29.94S
MANTEO         PTSUNNY   71  64  80 N13       29.95S

$$

NCZ045>047-081-094-103-104-011400-
CENTRAL COAST

CITY           SKY/WX    TMP DP  RH WIND       PRES   REMARKS
FRISCO         MOSUNNY   70  66  87 N10       29.93R
SWANQUARTER      N/A     68 N/A N/A N2G9      29.91S

$$

NCZ095-097-098-100-101-011400-
SOUTHERN COAST

CITY           SKY/WX    TMP DP  RH WIND       PRES   REMARKS
BEAUFORT       MOSUNNY   69  67  93 N9        29.95R
CEDAR ISLAND     N/A     70 N/A N/A N13       30.00R
JACKSONVILLE   FOG       63  62  97 NE6       29.97R VSB 1
NEWPORT        NOT AVBL
PINEY ISLAND   MOSUNNY   73  66  78 N8        29.95R HAZE
WILMINGTON     SUNNY     67  64  90 NE6       29.97R


$$

NCZ011>013-027>030-043-044-078>080-089-090>093-098-011400-
COASTAL PLAIN

CITY           SKY/WX    TMP DP  RH WIND       PRES   REMARKS
AHOSKIE        FOG       60  59  98 N3        29.99R VSB<1/4
CLINTON        CLOUDY    62  62 100 CALM      29.99R FOG
ELIZABETHTOWN  FOG       61  61 100 CALM      29.99R VSB 3/4
GOLDSBORO      SUNNY     64  64  98 CALM      29.96S
GREENVILLE     SUNNY     63  63 100 N3        30.00R FOG
HAVELOCK       CLOUDY    68  66  93 NE7       29.97R FOG
KENANSVILLE    CLOUDY    63  62  99 CALM      29.99R FOG
KINSTON        SUNNY     64  64 100 NE5       29.99R FOG
NEW BERN       CLOUDY    66  64  93 N5        29.98R FOG
RICHLANDS      CLOUDY    63  61  94 N6        29.98R VSB 1/2
ROANOKE RAPIDS NOT AVBL
ROCKY MOUNT    FOG       61  60  97 N5        29.99R VSB 1/2
WASHINGTON     SUNNY     64  63  96 N3        29.98R
WHITEVILLE     SUNNY     65  63  93 NE3       29.98R

$$

AMZ130-135-150-152-154-156-158-170-250-252-270-ANZ085-086-088-633-658-670-011400-
MARINE OBSERVATIONS

STATION/POSITION TIME  TEMP    WIND        PRES    WAVE   SWELL
                       AIR SEA DIR/SP/G            HT/PER HT/PER
                 (UTC) (F)     (DEG/KT/KT) (MB)    (FT/S) (FT/S)
CHESAPEAKE LIGHT 1200   69      20/ 12/ 13 1014.5
BUOY 44014       1300   70 71  360/ 14/ 16 1013.2    3/ 5   2/ 8
DUCK             1300   70 72   10/ 14/ 17 1013.4
2E DUCK          1300                        N/A     3/ 5   2/13
OREGON INLET     1300   71 74  360/ 11/ 15 1013.9
BUOY 44095       1300      73                N/A     4/ 7   2/13
20E OREGON INLET NOT AVBL
HATTERAS CG      1300   71 73   20/ 14/ 16 1014.0
DIAMOND BUOY     1300   73     350/ 17/ 19 1012.9    4/ 6   2/13
CAPE LOOKOUT     1200   69      10/ 10/ 12 1013.5
BEAUFORT LAB     1300   67 74   10/  8/ 10 1013.6
30 SE NEW RIVER  1200   72 79   20/ 16/ 17 1013.1
5 SE WRIGHTSVILL 1200   67 76   20/ 12/ 14   N/A
BUOY 41002       1154   79 80   10/ 10/ 12 1011.4    3/13   3/13
BUOY 41004       1300   77 81   20/ 10/ 14 1013.7    3/ 6   3/ 6

$$


USA.gov is the U.S. government's official web portal to all federal, state and local government web resources and services.